TimeEST,TemperatureF,Dew PointF,Humidity,Sea Level PressureIn,VisibilityMPH,Wind Direction,Wind SpeedMPH,Gust SpeedMPH,PrecipitationIn,Events,Conditions,WindDirDegrees,DateUTC
12:53 AM,-0.0,-5.1,79,30.69,10.0,Calm,Calm,-,N/A,,Clear,0,2014-01-24 05:53:00
1:53 AM,-0.0,-5.1,79,30.69,10.0,WSW,3.5,-,N/A,,Clear,250,2014-01-24 06:53:00
2:53 AM,-2.9,-6.0,87,30.70,10.0,SW,4.6,-,N/A,,Clear,230,2014-01-24 07:53:00
3:53 AM,-4.0,-7.1,87,30.69,10.0,WSW,4.6,-,N/A,,Clear,240,2014-01-24 08:53:00
4:53 AM,-5.1,-8.0,87,30.68,10.0,SW,5.8,-,N/A,,Clear,230,2014-01-24 09:53:00
5:53 AM,-5.1,-8.0,87,30.66,10.0,SW,4.6,-,N/A,,Clear,230,2014-01-24 10:53:00
6:53 AM,-5.1,-8.0,87,30.66,10.0,SW,4.6,-,N/A,,Clear,230,2014-01-24 11:53:00
7:53 AM,-5.1,-8.0,87,30.65,10.0,SW,3.5,-,N/A,,Clear,230,2014-01-24 12:53:00
8:53 AM,-0.9,-4.0,87,30.63,10.0,SSW,5.8,-,N/A,,Clear,210,2014-01-24 13:53:00
9:53 AM,3.9,-0.9,80,30.60,10.0,SSW,11.5,-,N/A,,Clear,200,2014-01-24 14:53:00
10:53 AM,8.1,-0.0,70,30.59,10.0,SSW,9.2,-,N/A,,Clear,210,2014-01-24 15:53:00
11:53 AM,10.9,1.0,64,30.55,10.0,SSW,13.8,-,N/A,,Clear,210,2014-01-24 16:53:00
12:53 PM,14.0,1.0,56,30.49,10.0,SW,12.7,-,N/A,,Clear,220,2014-01-24 17:53:00
1:53 PM,17.1,1.9,52,30.43,10.0,SSW,16.1,23.0,N/A,,Clear,200,2014-01-24 18:53:00
2:53 PM,18.0,3.9,54,30.37,10.0,SSW,13.8,23.0,N/A,,Clear,210,2014-01-24 19:53:00
3:53 PM,19.0,3.9,52,30.32,10.0,SSW,17.3,26.5,N/A,,Clear,210,2014-01-24 20:53:00
4:53 PM,19.0,3.0,50,30.27,10.0,South,12.7,23.0,N/A,,Clear,190,2014-01-24 21:53:00
5:53 PM,19.0,1.9,47,30.21,10.0,South,13.8,21.9,N/A,,Clear,190,2014-01-24 22:53:00
6:53 PM,19.0,3.0,50,30.16,10.0,South,15.0,-,N/A,,Clear,190,2014-01-24 23:53:00
7:53 PM,19.0,3.0,50,30.14,10.0,SSW,12.7,-,N/A,,Clear,200,2014-01-25 00:53:00
8:53 PM,19.0,3.9,52,30.08,10.0,SSW,16.1,-,N/A,,Clear,200,2014-01-25 01:53:00
9:53 PM,21.0,3.0,46,30.01,10.0,SSW,23.0,32.2,N/A,,Clear,210,2014-01-25 02:53:00
10:53 PM,21.9,3.0,44,30.00,10.0,SW,19.6,25.3,N/A,,Clear,220,2014-01-25 03:53:00
11:53 PM,21.9,3.0,44,29.96,10.0,SSW,17.3,26.5,N/A,,Clear,210,2014-01-25 04:53:00